Location: Mount Kobau Star Party
(49.1167°N, 119.7333°W)
Time: 12:30:51
(UTC-07:00)

ARIANE 6 FM1 Upper Stage - Pass Details

Date: 12 April 2026
Orbit: 526 x 601 km, 62.0° (Epoch: 18 May)

Event Time Altitude Azimuth Distance (km) Brightness Sun altitude
Rises 20:53:29 0° 235° (SW) 2,724 6.6 -10.9°
Reaches altitude 10° 20:55:45 10° 239° (WSW) 1,820 5.7 -11.2°
Maximum altitude 20:59:47 57° 319° (NW) 641 3.3 -11.8°
Drops below altitude 10° 21:03:45 10° 39° (NE) 1,793 5.1 -12.4°
Sets 21:05:58 0° 43° (NE) 2,679 6.0 -12.7°
